TimeMST,TemperatureF,Dew PointF,Humidity,Sea Level PressureIn,VisibilityMPH,Wind Direction,Wind SpeedMPH,Gust SpeedMPH,PrecipitationIn,Events,Conditions,WindDirDegrees,DateUTC
12:13 AM,28.4,21.2,74,30.09,10.0,North,13.8,-,N/A,,Overcast,350,2013-02-27 07:13:00
12:52 AM,28.9,21.0,72,30.18,10.0,North,15.0,24.2,N/A,,Overcast,350,2013-02-27 07:52:00
1:52 AM,27.0,21.0,78,30.19,10.0,North,15.0,-,N/A,,Overcast,350,2013-02-27 08:52:00
2:52 AM,27.0,19.9,75,30.19,10.0,North,19.6,26.5,N/A,,Partly Cloudy,350,2013-02-27 09:52:00
3:52 AM,27.0,19.9,75,30.21,10.0,NNW,21.9,28.8,N/A,,Partly Cloudy,340,2013-02-27 10:52:00
4:52 AM,24.1,19.0,81,30.25,10.0,North,16.1,-,N/A,,Clear,350,2013-02-27 11:52:00
5:52 AM,25.0,19.0,78,30.25,10.0,NNW,19.6,27.6,N/A,,Clear,340,2013-02-27 12:52:00
6:52 AM,25.0,18.0,75,30.25,10.0,North,19.6,27.6,N/A,,Clear,350,2013-02-27 13:52:00
7:52 AM,27.0,19.0,72,30.26,10.0,NNW,23.0,31.1,N/A,,Clear,340,2013-02-27 14:52:00
8:52 AM,28.9,19.9,69,30.27,10.0,North,20.7,31.1,N/A,,Clear,350,2013-02-27 15:52:00
9:52 AM,32.0,21.0,64,30.28,10.0,North,23.0,29.9,N/A,,Clear,360,2013-02-27 16:52:00
10:52 AM,35.1,19.9,54,30.27,10.0,North,24.2,31.1,N/A,,Clear,350,2013-02-27 17:52:00
11:52 AM,37.9,19.9,48,30.26,10.0,NNW,26.5,32.2,N/A,,Clear,330,2013-02-27 18:52:00
12:52 PM,39.0,19.0,45,30.24,10.0,NNW,24.2,31.1,N/A,,Clear,330,2013-02-27 19:52:00
1:52 PM,39.9,17.1,40,30.23,10.0,NNW,25.3,35.7,N/A,,Clear,340,2013-02-27 20:52:00
2:52 PM,41.0,17.6,39,30.15,10.0,NNW,24.2,32.2,N/A,,Clear,340,2013-02-27 21:52:00
3:52 PM,39.0,18.0,43,30.26,10.0,NNW,19.6,-,N/A,,Clear,330,2013-02-27 22:52:00
4:52 PM,37.0,18.0,46,30.27,10.0,NNW,15.0,-,N/A,,Scattered Clouds,330,2013-02-27 23:52:00
5:45 PM,33.8,17.6,52,30.18,10.0,NE,10.4,-,N/A,,Overcast,40,2013-02-28 00:45:00
5:52 PM,32.0,18.0,56,30.29,10.0,NE,9.2,-,N/A,,Overcast,40,2013-02-28 00:52:00
6:52 PM,27.0,17.1,66,30.31,10.0,NNE,10.4,-,N/A,,Partly Cloudy,30,2013-02-28 01:52:00
7:52 PM,25.0,17.1,72,30.31,10.0,NNE,9.2,-,N/A,,Clear,20,2013-02-28 02:52:00
8:52 PM,24.1,18.0,77,30.32,10.0,NNW,3.5,-,N/A,,Overcast,330,2013-02-28 03:52:00
9:52 PM,19.9,15.1,81,30.33,10.0,NNE,3.5,-,N/A,,Clear,30,2013-02-28 04:52:00
10:52 PM,19.0,16.0,88,30.33,10.0,Calm,Calm,-,N/A,,Mostly Cloudy,0,2013-02-28 05:52:00
11:52 PM,18.0,15.1,88,30.31,10.0,Calm,Calm,-,N/A,,Clear,0,2013-02-28 06:52:00